Date,TemperatureHighF,TemperatureAvgF,TemperatureLowF,DewpointHighF,DewpointAvgF,DewpointLowF,HumidityHigh,HumidityAvg,HumidityLow,PressureMaxIn,PressureMinIn,WindSpeedMaxMPH,WindSpeedAvgMPH,GustSpeedMaxMPH,PrecipitationSumIn
2013-1-1,73,60,43,59,55,42,100,85,59,30.13,29.89,5,2,8,0.00
2013-1-2,65,61,54,63,58,53,97,88,80,30.05,29.84,7,4,12,0.01
2013-1-3,56,52,46,54,51,46,100,96,92,30.18,30.00,3,1,7,0.19
2013-1-4,65,50,39,48,42,38,100,79,40,30.28,30.16,8,2,10,0.01
2013-1-5,61,45,32,40,36,32,100,75,40,30.32,30.22,6,2,11,0.00
2013-1-6,55,47,44,46,43,39,93,85,60,30.23,30.05,27,1,27,0.04
2013-1-7,58,49,34,44,39,32,95,70,39,30.30,30.11,11,3,14,0.04
2013-1-8,65,53,46,55,46,38,95,78,63,30.30,30.20,7,3,9,0.00
2013-1-9,74,62,54,64,58,52,97,87,68,30.31,30.21,5,2,8,0.01
2013-1-10,74,63,52,68,60,52,100,91,62,30.33,30.24,12,4,14,0.01
2013-1-11,82,67,56,68,63,56,100,88,56,30.25,30.10,9,3,12,0.00
2013-1-12,86,67,56,69,62,56,100,86,49,30.14,30.03,6,2,8,0.00
2013-1-13,80,64,54,70,59,53,100,85,52,30.10,30.00,8,2,11,0.01
2013-1-14,81,65,57,69,60,56,99,85,50,30.13,30.03,10,3,14,0.00
2013-1-15,80,65,51,64,59,51,100,83,45,30.09,29.97,12,3,16,0.00
2013-1-16,82,68,58,67,61,56,100,81,44,30.00,29.88,11,4,17,0.01
2013-1-17,82,60,44,65,54,36,100,83,56,30.03,29.69,19,5,25,0.08
2013-1-18,58,45,30,41,30,15,90,62,19,30.42,30.03,12,5,16,0.01
2013-1-19,68,50,38,51,39,29,96,69,49,30.39,30.16,8,3,11,0.00
2013-1-20,70,52,38,53,41,33,100,74,27,30.17,29.99,9,2,13,0.00
2013-1-21,66,50,34,45,36,32,99,65,31,30.05,29.93,10,2,14,0.00
2013-1-22,60,48,34,34,24,16,81,42,19,30.23,30.01,11,3,19,0.00
2013-1-23,59,42,31,35,25,16,89,55,25,30.32,30.13,8,2,15,0.00
2013-1-24,71,54,38,48,38,26,91,59,24,30.34,30.06,13,6,21,0.00
2013-1-25,61,44,32,41,32,22,80,63,46,30.35,30.07,12,4,14,0.00
2013-1-26,72,53,40,53,44,35,95,73,33,30.22,30.04,8,3,14,0.00
2013-1-27,57,48,41,46,40,34,96,76,46,30.40,30.21,11,5,14,0.00
2013-1-28,72,55,-14,56,47,-24,96,76,50,30.36,30.20,6,3,8,0.00
2013-1-29,76,60,49,64,56,48,100,87,60,30.21,30.03,11,3,17,0.00
2013-1-30,77,70,54,67,64,53,100,83,64,30.03,29.59,19,10,29,0.17
2013-1-31,57,49,0,53,32,16,97,55,21,30.14,29.70,14,6,22,0.06